| time (UTC) | temp F | wind direction | speed knots | gust knots | rain 1hr in | rain 24hr in | rain mn in | humidity % | barometer mb |
| 20260505051048 | 59 | 175 | 0.0 | 0.0 | 0.00 | 0.00 | 0.00 | 78 | 999.8 |
| 20260505050537 | 59 | 175 | 0.0 | 0.0 | 0.00 | 0.00 | 0.00 | 78 | 999.8 |
| 20260505050105 | 60 | 175 | 0.0 | 0.0 | 0.00 | 0.00 | 0.00 | 78 | 999.7 |
| 20260505041508 | 62 | 175 | 0.0 | 0.0 | 0.00 | 0.00 | 0.00 | 73 | 999.0 |
| 20260505041056 | 63 | 175 | 0.0 | 0.0 | 0.00 | 0.00 | 0.00 | 73 | 999.0 |
| 20260505040544 | 63 | 175 | 0.0 | 0.0 | 0.00 | 0.00 | 0.00 | 73 | 998.9 |
| 20260505040003 | 63 | 175 | 0.0 | 0.0 | 0.00 | 0.00 | 0.00 | 72 | 998.7 |
| 20260505035552 | 64 | 175 | 0.0 | 0.0 | 0.00 | 0.00 | 0.00 | 72 | 998.7 |
| 20260505035041 | 64 | 175 | 0.0 | 0.0 | 0.00 | 0.00 | 0.00 | 71 | 998.6 |
| 20260505034512 | 64 | 175 | 0.0 | 0.0 | 0.00 | 0.00 | 0.00 | 71 | 998.5 |
| 20260505034102 | 65 | 175 | 0.0 | 0.0 | 0.00 | 0.00 | 0.00 | 71 | 998.4 |
| 20260505033551 | 65 | 175 | 0.0 | 0.0 | 0.00 | 0.00 | 0.00 | 71 | 998.4 |
| 20260505033013 | 65 | 175 | 0.0 | 0.0 | 0.00 | 0.00 | 0.00 | 70 | 998.3 |
| 20260505032601 | 66 | 175 | 0.0 | 0.0 | 0.00 | 0.00 | 0.00 | 70 | 998.3 |
| 20260505032052 | 66 | 175 | 0.0 | 0.0 | 0.00 | 0.00 | 0.00 | 70 | 998.2 |
| 20260505031601 | 66 | 175 | 0.0 | 0.0 | 0.00 | 0.00 | 0.00 | 70 | 998.1 |
| 20260505031047 | 66 | 175 | 0.0 | 0.0 | 0.00 | 0.00 | 0.00 | 69 | 998.0 |
| 20260505030538 | 67 | 175 | 0.0 | 0.0 | 0.00 | 0.00 | 0.00 | 70 | 998.0 |
| 20260505030057 | 67 | 175 | 0.0 | 0.0 | 0.00 | 0.00 | 0.00 | 70 | 998.0 |
| 20260505025545 | 67 | 175 | 0.0 | 0.0 | 0.00 | 0.00 | 0.00 | 69 | 997.9 |
| 20260505025034 | 67 | 175 | 0.0 | 2.6 | 0.00 | 0.00 | 0.00 | 68 | 997.9 |
| 20260505024506 | 68 | 175 | 0.0 | 3.5 | 0.00 | 0.00 | 0.00 | 68 | 997.9 |
| 20260505024053 | 68 | 184 | 0.0 | 3.5 | 0.00 | 0.00 | 0.00 | 68 | 997.8 |
| 20260505023543 | 68 | 51 | 0.0 | 5.2 | 0.00 | 0.00 | 0.00 | 66 | 997.8 |
| 20260505023011 | 69 | 195 | 0.9 | 5.2 | 0.00 | 0.00 | 0.00 | 66 | 997.8 |
| 20260505022554 | 69 | 182 | 0.0 | 5.2 | 0.00 | 0.00 | 0.00 | 65 | 997.7 |
| 20260505022042 | 69 | 302 | 0.9 | 7.0 | 0.00 | 0.00 | 0.00 | 65 | 997.8 |
| 20260505021515 | 69 | 173 | 2.6 | 7.0 | 0.00 | 0.00 | 0.00 | 65 | 997.7 |
| 20260505021103 | 69 | 240 | 0.0 | 5.2 | 0.00 | 0.00 | 0.00 | 65 | 997.7 |
| 20260505020550 | 70 | 142 | 0.9 | 8.7 | 0.00 | 0.00 | 0.00 | 64 | 997.8 |
| 20260505020008 | 70 | 229 | 3.5 | 8.7 | 0.00 | 0.00 | 0.00 | 64 | 997.7 |
| 20260505015559 | 70 | 308 | 2.6 | 8.7 | 0.00 | 0.00 | 0.00 | 64 | 997.7 |
| 20260505015048 | 71 | 182 | 1.7 | 6.1 | 0.00 | 0.00 | 0.00 | 64 | 997.7 |
| 20260505014514 | 71 | 249 | 0.0 | 2.6 | 0.00 | 0.00 | 0.00 | 64 | 997.7 |
| 20260505014102 | 71 | 199 | 0.0 | 4.3 | 0.00 | 0.00 | 0.00 | 63 | 997.7 |
| 20260505013548 | 71 | 159 | 0.9 | 6.1 | 0.00 | 0.00 | 0.00 | 63 | 997.7 |
| 20260505013006 | 72 | 294 | 2.6 | 6.1 | 0.00 | 0.00 | 0.00 | 63 | 997.7 |
| 20260505012557 | 72 | 165 | 1.7 | 4.3 | 0.00 | 0.00 | 0.00 | 63 | 997.8 |
| 20260505012046 | 72 | 169 | 1.7 | 4.3 | 0.00 | 0.00 | 0.00 | 64 | 997.7 |
| 20260505011505 | 72 | 212 | 0.9 | 7.0 | 0.00 | 0.00 | 0.00 | 64 | 997.8 |
| 20260505011055 | 72 | 201 | 1.7 | 6.1 | 0.00 | 0.00 | 0.00 | 64 | 997.8 |
| 20260505010542 | 72 | 136 | 2.6 | 6.1 | 0.00 | 0.00 | 0.00 | 64 | 997.9 |
| 20260505010004 | 72 | 284 | 1.7 | 6.1 | 0.00 | 0.00 | 0.00 | 64 | 997.9 |
| 20260505005554 | 72 | 193 | 0.0 | 4.3 | 0.00 | 0.00 | 0.00 | 64 | 997.9 |
| 20260505005042 | 72 | 193 | 0.9 | 4.3 | 0.00 | 0.00 | 0.00 | 63 | 997.8 |
| 20260505004503 | 72 | 56 | 0.9 | 4.3 | 0.00 | 0.00 | 0.00 | 63 | 997.8 |
| 20260505004052 | 73 | 264 | 0.0 | 3.5 | 0.00 | 0.00 | 0.00 | 64 | 998.0 |
| 20260505003543 | 72 | 171 | 0.9 | 3.5 | 0.00 | 0.00 | 0.00 | 63 | 998.0 |
| 20260505003002 | 73 | 195 | 0.9 | 4.3 | 0.00 | 0.00 | 0.00 | 64 | 998.1 |
| 20260505002553 | 73 | 111 | 0.0 | 7.0 | 0.00 | 0.00 | 0.00 | 63 | 998.1 |
| 20260505002042 | 73 | 171 | 2.6 | 7.0 | 0.00 | 0.00 | 0.00 | 63 | 998.1 |
| 20260505001502 | 73 | 74 | 0.9 | 5.2 | 0.00 | 0.00 | 0.00 | 63 | 998.1 |
| 20260505001054 | 73 | 204 | 1.7 | 5.2 | 0.00 | 0.00 | 0.00 | 64 | 998.1 |
| 20260505000543 | 73 | 220 | 1.7 | 5.2 | 0.00 | 0.00 | 0.00 | 63 | 998.2 |
| 20260505000109 | 73 | 96 | 0.9 | 6.1 | 0.00 | 0.00 | 0.00 | 63 | 998.3 |
| 20260504235552 | 73 | 132 | 0.9 | 6.1 | 0.00 | 0.00 | 0.00 | 64 | 998.2 |
| 20260504235039 | 73 | 98 | 0.9 | 7.8 | 0.00 | 0.00 | 0.00 | 64 | 998.3 |
| 20260504234500 | 73 | 155 | 3.5 | 7.8 | 0.00 | 0.00 | 0.00 | 64 | 998.3 |
| 20260504234051 | 73 | 249 | 2.6 | 7.0 | 0.00 | 0.00 | 0.00 | 64 | 998.4 |
| 20260504233539 | 72 | 233 | 0.0 | 4.3 | 0.00 | 0.00 | 0.00 | 64 | 998.5 |
| 20260504233108 | 72 | 65 | 0.9 | 6.1 | 0.00 | 0.00 | 0.00 | 64 | 998.6 |
| 20260504232551 | 73 | 186 | 0.9 | 7.8 | 0.00 | 0.00 | 0.00 | 62 | 998.6 |
| 20260504232038 | 73 | 182 | 1.7 | 7.8 | 0.00 | 0.00 | 0.00 | 63 | 998.6 |
| 20260504231601 | 73 | 125 | 1.7 | 3.5 | 0.00 | 0.00 | 0.00 | 64 | 998.5 |
| 20260504231048 | 72 | 242 | 0.9 | 5.2 | 0.00 | 0.00 | 0.00 | 64 | 998.6 |
| 20260504230539 | 72 | 55 | 0.0 | 5.2 | 0.00 | 0.00 | 0.00 | 62 | 998.6 |
| 20260504230105 | 73 | 132 | 1.7 | 4.3 | 0.00 | 0.00 | 0.00 | 63 | 998.7 |
| 20260504225547 | 72 | 127 | 1.7 | 7.8 | 0.00 | 0.00 | 0.00 | 64 | 998.7 |
| 20260504225035 | 72 | 206 | 2.6 | 7.8 | 0.00 | 0.00 | 0.00 | 64 | 998.8 |
| 20260504224558 | 72 | 201 | 1.7 | 7.8 | 0.00 | 0.00 | 0.00 | 63 | 998.8 |
| 20260504224046 | 72 | 251 | 2.6 | 7.8 | 0.00 | 0.00 | 0.00 | 64 | 998.9 |
| 20260504223533 | 72 | 151 | 1.7 | 7.8 | 0.00 | 0.00 | 0.00 | 62 | 999.0 |
| 20260504223005 | 72 | 73 | 0.9 | 7.8 | 0.00 | 0.00 | 0.00 | 65 | 999.0 |
| 20260504222554 | 72 | 360 | 0.9 | 6.1 | 0.00 | 0.00 | 0.00 | 64 | 999.0 |
| 20260504222041 | 72 | 238 | 1.7 | 7.0 | 0.00 | 0.00 | 0.00 | 64 | 999.1 |
| 20260504221502 | 72 | 264 | 3.5 | 7.0 | 0.00 | 0.00 | 0.00 | 63 | 999.2 |
| 20260504221051 | 71 | 131 | 1.7 | 7.8 | 0.00 | 0.00 | 0.00 | 65 | 999.1 |
| 20260504220540 | 71 | 159 | 3.5 | 7.8 | 0.00 | 0.00 | 0.00 | 63 | 999.2 |
| 20260504220009 | 71 | 266 | 2.6 | 5.2 | 0.00 | 0.00 | 0.00 | 63 | 999.2 |
| 20260504215559 | 72 | 232 | 1.7 | 8.7 | 0.00 | 0.00 | 0.00 | 62 | 999.3 |
| 20260504215047 | 71 | 175 | 4.3 | 8.7 | 0.00 | 0.00 | 0.00 | 63 | 999.3 |
| 20260504214517 | 72 | 113 | 1.7 | 4.3 | 0.00 | 0.00 | 0.00 | 62 | 999.3 |
| 20260504214058 | 72 | 182 | 1.7 | 4.3 | 0.00 | 0.00 | 0.00 | 63 | 999.4 |
| 20260504213547 | 71 | 246 | 0.9 | 4.3 | 0.00 | 0.00 | 0.00 | 63 | 999.4 |
| 20260504213008 | 70 | 284 | 0.0 | 6.1 | 0.00 | 0.00 | 0.00 | 66 | 999.5 |
| 20260504212559 | 70 | 252 | 1.7 | 7.8 | 0.00 | 0.00 | 0.00 | 63 | 999.5 |
| 20260504212047 | 70 | 260 | 3.5 | 7.0 | 0.00 | 0.00 | 0.00 | 65 | 999.7 |
| 20260504211514 | 69 | 355 | 0.9 | 3.5 | 0.00 | 0.00 | 0.00 | 66 | 999.8 |
| 20260504211058 | 69 | 134 | 0.9 | 3.5 | 0.00 | 0.00 | 0.00 | 65 | 999.9 |
| 20260504210548 | 70 | 81 | 0.9 | 6.1 | 0.00 | 0.00 | 0.00 | 65 | 1000.0 |
| 20260504210005 | 70 | 324 | 1.7 | 4.3 | 0.00 | 0.00 | 0.00 | 64 | 1000.1 |
| 20260504205556 | 69 | 167 | 0.9 | 7.0 | 0.00 | 0.00 | 0.00 | 68 | 1000.1 |
| 20260504205042 | 68 | 250 | 1.7 | 7.0 | 0.00 | 0.00 | 0.00 | 66 | 1000.2 |
| 20260504204517 | 68 | 254 | 0.9 | 5.2 | 0.00 | 0.00 | 0.00 | 67 | 1000.3 |
| 20260504204102 | 68 | 84 | 1.7 | 5.2 | 0.00 | 0.00 | 0.00 | 66 | 1000.3 |
| 20260504203549 | 67 | 105 | 1.7 | 3.5 | 0.00 | 0.00 | 0.00 | 66 | 1000.4 |
| 20260504203011 | 67 | 168 | 1.7 | 7.8 | 0.00 | 0.00 | 0.00 | 69 | 1000.5 |
| 20260504202601 | 67 | 129 | 2.6 | 7.8 | 0.00 | 0.00 | 0.00 | 67 | 1000.4 |
| 20260504202049 | 67 | 301 | 1.7 | 5.2 | 0.00 | 0.00 | 0.00 | 67 | 1000.4 |
| 20260504201514 | 67 | 186 | 2.6 | 6.1 | 0.00 | 0.00 | 0.00 | 70 | 1000.5 |
| 20260504201004 | 66 | 98 | 2.6 | 6.1 | 0.00 | 0.00 | 0.00 | 71 | 1000.6 |
| 20260504200553 | 65 | 54 | 0.9 | 4.3 | 0.00 | 0.00 | 0.00 | 68 | 1000.6 |
| 20260504200013 | 65 | 90 | 1.7 | 5.2 | 0.00 | 0.00 | 0.00 | 69 | 1000.7 |
| 20260504195502 | 66 | 166 | 2.6 | 5.2 | 0.00 | 0.00 | 0.00 | 69 | 1000.7 |
| 20260504195051 | 65 | 236 | 1.7 | 7.0 | 0.00 | 0.00 | 0.00 | 70 | 1000.7 |
| 20260504194513 | 64 | 230 | 3.5 | 7.0 | 0.00 | 0.00 | 0.00 | 71 | 1000.7 |
| 20260504194002 | 64 | 92 | 1.7 | 3.5 | 0.00 | 0.00 | 0.00 | 72 | 1000.7 |
| 20260504193543 | 64 | 79 | 1.7 | 5.2 | 0.00 | 0.00 | 0.00 | 72 | 1000.7 |
| 20260504193004 | 64 | 190 | 2.6 | 5.2 | 0.00 | 0.00 | 0.00 | 70 | 1000.8 |
| 20260504192554 | 64 | 152 | 0.9 | 3.5 | 0.00 | 0.00 | 0.00 | 71 | 1000.8 |
| 20260504192042 | 62 | 360 | 0.9 | 3.5 | 0.00 | 0.00 | 0.00 | 72 | 1000.8 |
| 20260504191608 | 63 | 115 | 1.7 | 3.5 | 0.00 | 0.00 | 0.00 | 71 | 1000.9 |
| 20260504191051 | 62 | 97 | 1.7 | 3.5 | 0.00 | 0.00 | 0.00 | 75 | 1001.1 |
| 20260504190539 | 62 | 245 | 0.9 | 3.5 | 0.00 | 0.00 | 0.00 | 73 | 1001.1 |
| 20260504190116 | 62 | 49 | 0.9 | 3.5 | 0.00 | 0.00 | 0.00 | 75 | 1001.2 |
| 20260504185549 | 61 | 64 | 0.9 | 3.5 | 0.00 | 0.00 | 0.00 | 75 | 1001.2 |
| 20260504185037 | 60 | 77 | 1.7 | 4.3 | 0.00 | 0.00 | 0.00 | 75 | 1001.2 |
| 20260504184506 | 60 | 271 | 1.7 | 5.2 | 0.00 | 0.00 | 0.00 | 76 | 1001.3 |
| 20260504184055 | 60 | 158 | 1.7 | 6.1 | 0.00 | 0.00 | 0.00 | 76 | 1001.3 |
| 20260504183542 | 60 | 193 | 1.7 | 3.5 | 0.00 | 0.00 | 0.00 | 75 | 1001.3 |
| 20260504183004 | 60 | 311 | 0.0 | 2.6 | 0.00 | 0.00 | 0.00 | 76 | 1001.3 |
| 20260504182554 | 60 | 77 | 0.0 | 2.6 | 0.00 | 0.00 | 0.00 | 76 | 1001.3 |
| 20260504182042 | 60 | 267 | 0.9 | 2.6 | 0.00 | 0.00 | 0.00 | 76 | 1001.2 |
| 20260504181503 | 60 | 102 | 0.0 | 2.6 | 0.00 | 0.00 | 0.00 | 77 | 1001.3 |
| 20260504181053 | 59 | 100 | 1.7 | 2.6 | 0.00 | 0.00 | 0.00 | 77 | 1001.2 |
| 20260504180541 | 59 | 123 | 1.7 | 3.5 | 0.00 | 0.00 | 0.00 | 77 | 1001.3 |
| 20260504175550 | 59 | 128 | 0.9 | 2.6 | 0.00 | 0.00 | 0.00 | 78 | 1001.2 |
| 20260504175039 | 59 | 157 | 0.9 | 5.2 | 0.00 | 0.00 | 0.00 | 78 | 1001.3 |
| 20260504174601 | 59 | 178 | 0.9 | 5.2 | 0.00 | 0.00 | 0.00 | 78 | 1001.2 |
| 20260504174050 | 58 | 250 | 0.9 | 3.5 | 0.00 | 0.00 | 0.00 | 78 | 1001.2 |
| 20260504173541 | 58 | 115 | 0.0 | 6.1 | 0.00 | 0.00 | 0.00 | 78 | 1001.1 |
| 20260504173101 | 58 | 219 | 0.9 | 6.1 | 0.00 | 0.00 | 0.00 | 78 | 1001.2 |
| 20260504172549 | 58 | 155 | 0.9 | 4.3 | 0.00 | 0.00 | 0.00 | 77 | 1001.2 |
| 20260504172037 | 58 | 190 | 0.9 | 5.2 | 0.00 | 0.00 | 0.00 | 78 | 1001.1 |
| 20260504171509 | 58 | 188 | 2.6 | 5.2 | 0.00 | 0.00 | 0.00 | 79 | 1001.1 |
| 20260504171058 | 58 | 171 | 2.6 | 6.1 | 0.00 | 0.00 | 0.00 | 78 | 1001.0 |
| 20260504170545 | 58 | 331 | 0.0 | 6.1 | 0.00 | 0.00 | 0.00 | 78 | 1001.0 |
| 20260504160106 | 56 | 207 | 0.9 | 6.1 | 0.00 | 0.00 | 0.00 | 81 | 1000.7 |
| 20260504151048 | 56 | 192 | 0.0 | 4.3 | 0.00 | 0.00 | 0.00 | 80 | 1000.4 |
| 20260504150535 | 56 | 331 | 0.0 | 3.5 | 0.00 | 0.00 | 0.00 | 80 | 1000.5 |
| 20260504141058 | 54 | 183 | 0.0 | 1.7 | 0.00 | 0.00 | 0.00 | 83 | 999.8 |
| 20260504140546 | 54 | 178 | 0.0 | 0.9 | 0.00 | 0.00 | 0.00 | 82 | 999.7 |
| 20260504130540 | 55 | 197 | 0.0 | 2.6 | 0.00 | 0.00 | 0.00 | 79 | 998.7 |
| 20260504110545 | 60 | 299 | 0.0 | 1.7 | 0.00 | 0.00 | 0.00 | 69 | 997.0 |
| 20260504100537 | 65 | 207 | 0.0 | 1.7 | 0.00 | 0.00 | 0.00 | 61 | 996.2 |
| 20260504100105 | 65 | 207 | 0.0 | 1.7 | 0.00 | 0.00 | 0.00 | 62 | 996.2 |
| 20260504081503 | 69 | 265 | 0.9 | 3.5 | 0.00 | 0.00 | 0.00 | 51 | 995.9 |
| 20260504081054 | 69 | 282 | 1.7 | 3.5 | 0.00 | 0.00 | 0.00 | 51 | 995.9 |
| 20260504080541 | 69 | 285 | 0.9 | 3.5 | 0.00 | 0.00 | 0.00 | 50 | 995.8 |
| 20260504060106 | 72 | 269 | 1.7 | 4.3 | 0.00 | 0.00 | 0.00 | 43 | 995.5 |